"Pseudo-MPEC" for A11aJn1

Created 2024 Sep 10 14:22:03 UT using Find_Orb

Click here for an explanation of pseudo-MPECs

 
 Astrometry: 
     A11aJn1* C2024 09 05Cs,25I:LB'AstrometryYl^`2^G.bgRF@olUi$RbddRgY$/`7e:)T08
     A11aJn1  C2024 09 05ITobUWJrDrdLetoCLWakc(Jg70Y#%Y2h5ima4oYRuxLjuS\Den-VT08
     A11aJn1  C2024 09 05X@3]\mqH6,l)GZR2NY9rTltkj:/^GepAR.#F%6er?2RqlyKWL#qmT08
     A11aJn1  C2024 09 05:Q;F\R0:R5@hl-fxYX2^N^dQ_5ESoPoo,+HETQ?Credacted;+e*T08
     A11aJn1  C2024 09 05Kcc^ZPBb4`9Mu8'DCP:O[F[pQTm]@x.]al=7hYNMS#e4Hbdl28[\T08
     A11aJn1  C2024 09 05iiP/Nimi5d[click$D;,qn06]2SG(y!n76PZ;5.*\x?G3herewENT08
     A11aJn1  C2024 09 05*pBn`Ym'bl\V)s,ygY4u=qM6r`4q4rA1f'forjFuK.A.%[JCZkVnT08
     A11aJn1  C2024 09 05gs?n/kUwCo7T5sy5n$C5f;:Gf7'1GPR@IG*oV[1y+I.@Ba0jeSYRT08
     A11aJn1  C2024 09 05oNy5?[Fg1SaZEOV';/2q,:X^xJqPsy)b?db,O;Gd;mmKt.5`,lteT08
     A11aJn1  C2024 09 05cX=gPG`OPHod.xVbuIV!w6]EB)?aFRX3\%MeVO4%:B#txfI!vJx:T08
     A11aJn1  C2024 09 05:5_7?YRee1yG62FVFKJC)xuIGwELO_@eyW^20IwuD1)VX9W]c@;uT08
     A11aJn1  C2024 09 05iLhhN/A'@%9*N6%+474DIexplanationM!`jU[+QJGWmj3ASTMY;T08

Station data:
(T08) ATLAS-MLO, Mauna Loa  (N19.536150 W155.576050)  US/Hawaii.  Observers
   L. Denneau, A. Heinze, H. Weiland, J. Tonry, H. Flewelling, A.
   Fitzsimmons, D. Young, B. Stalder. Measurers L. Denneau, A. Heinze, J.
   Tonry. 0.5-m f/2.0 Schmidt + CCD.

Orbital elements:  A11aJn1
   Perigee 2024 Sep 5.76651 +/- 0.000306 TT = 18:23:46 (JD 2460559.26651)
Epoch 2024 Sep  6.0 TT = JDT 2460559.5                           AutoNEOCP
M  84.26364882 +/- 0.20             (J2000 equator)
n 360.88026746 +/- 0.532            Peri.  177.82152 +/- 0.040
a 42172.3771 +/- 41.4               Node   332.27947 +/- 0.0049
e   0.7773980 +/- 0.000305          Incl.   11.16206 +/- 0.0018
P1436.460m/0.998d          H 33.56  G  0.15   U 12.3
q 9387.65361 +/- 20    Q 74957.1007 +/- 66.3
From 12 observations 2024 Sept. 5 (2.9 hr); mean residual 1".15
Residuals in arcseconds: 
240905 T08  .01-  .11+    240905 T08  .15-  .20+    240905 T08  .03-  .14-    
240905 T08  1.4+  .24+    240905 T08  1.6-  .20-    240905 T08  2.8+  .52+    
240905 T08  3.0-  1.2-    240905 T08  1.3+  .77+    240905 T08  .92-  .40-    
240905 T08  .45-  .09-    240905 T08  1.8+  .27+    240905 T08  1.2-  .09-    

Ephemerides (geocentric):
Date (UTC) HH   RA             Dec           delta  r     elong  mag " sig PA
---- --------  ------------   ------------  ------ ------ -----  --- --------
2024 09 10 14  00 02 23.710   +05 23 50.62   50431 1.0072 164.6 17.1 1626  80
2024 09 10 15  00 33 14.229   +06 39 51.39   42741 1.0071 157.6 16.9 2252  81
2024 09 10 16  01 20 03.887   +08 20 29.71   33311 1.0070 146.5 16.7 3692  83
2024 09 10 17  02 53 12.379   +10 34 43.55   21566 1.0069 123.9 16.4 8855  86
2024 09 10 18  08 53 50.485   +03 34 13.93    9603 1.0067  35.6 20?? 722' 101
2024 09 10 19  16 39 34.287   -11 02 47.89   19114 1.0068  81.8 17.6 171'  88
2024 09 10 20  18 31 35.085   -09 03 37.72   31338 1.0068 109.2 17.7 3948  83
2024 09 10 21  19 23 25.490   -07 22 24.15   41148 1.0069 121.9 17.9 2351  81
2024 09 10 22  19 56 23.503   -06 05 35.09   49125 1.0070 130.0 18.0 1690  80
2024 09 10 23  20 20 41.545   -05 03 48.78   55678 1.0070 136.0 18.1 1348  80
2024 09 11 00  20 40 12.287   -04 11 34.38   61058 1.0070 140.8 18.2 1147  79
2024 09 11 01  20 56 47.045   -03 25 39.04   65427 1.0071 144.9 18.2 1022  79
2024 09 11 02  21 11 27.601   -02 44 02.17   68895 1.0071 148.5 18.2  941  79
2024 09 11 03  21 24 52.229   -02 05 22.65   71537 1.0071 151.7 18.2  891  79
2024 09 11 04  21 37 26.935   -01 28 41.87   73404 1.0071 154.7 18.2  861  79
2024 09 11 05  21 49 31.007   -00 53 14.22   74530 1.0071 157.6 18.1  849  79
2024 09 11 06  22 01 20.111   -00 18 21.37   74933 1.0071 160.3 18.1  852  79
2024 09 11 07  22 13 08.278   +00 16 31.78   74620 1.0071 163.0 18.0  870  79
2024 09 11 08  22 25 09.442   +00 52 00.31   73587 1.0071 165.6 17.8  904  79
2024 09 11 09  22 37 38.951   +01 28 42.56   71815 1.0071 168.2 17.7  957  79
2024 09 11 10  22 50 55.467   +02 07 24.06   69273 1.0071 170.4 17.5 1035  79
2024 09 11 11  23 05 23.864   +02 49 03.34   65913 1.0070 172.0 17.4 1147  79
2024 09 11 12  23 21 40.331   +03 35 01.36   61663 1.0070 172.0 17.2 1313  79
2024 09 11 13  23 40 42.559   +04 27 18.48   56419 1.0070 169.7 17.1 1567  80
2024 09 11 14  00 04 12.887   +05 29 07.73   50026 1.0069 165.1 17.0 1989  80
2024 09 11 15  00 35 40.569   +06 46 04.21   42248 1.0068 158.0 16.9 2782  81
2024 09 11 16  01 23 56.812   +08 28 15.38   32701 1.0067 146.5 16.7 4641  83
2024 09 11 17  03 02 19.819   +10 42 29.35   20806 1.0066 122.7 16.4 194'  87
2024 09 11 18  09 36 33.222   +01 30 40.79    9439 1.0065  26.0 21?? 888' 101
2024 09 11 19  16 50 21.103   -10 57 18.92   19892 1.0065  83.5 17.7 190'  88
2024 09 11 20  18 35 49.048   -08 55 33.40   31967 1.0066 109.3 17.7 4572  83
2024 09 11 21  19 26 00.137   -07 15 49.24   41656 1.0066 121.6 17.9 2760  81
2024 09 11 22  19 58 17.071   -05 59 58.96   49541 1.0067 129.6 18.0 1994  80
2024 09 11 23  20 22 13.682   -04 58 49.72   56021 1.0067 135.5 18.2 1593  80
2024 09 12 00  20 41 31.719   -04 06 59.88   61338 1.0068 140.2 18.2 1356  79
2024 09 12 01  20 57 58.364   -03 21 21.50   65653 1.0068 144.3 18.3 1206  79
2024 09 12 02  21 12 33.530   -02 39 56.69   69072 1.0068 147.8 18.3 1110  79
2024 09 12 03  21 25 54.546   -02 01 25.84   71668 1.0068 151.1 18.2 1049  79
2024 09 12 04  21 38 26.904   -01 24 51.21   73492 1.0069 154.1 18.2 1013  79
2024 09 12 05  21 50 29.611   -00 49 27.72   74575 1.0069 157.0 18.2  998  79
2024 09 12 06  22 02 18.187   -00 14 37.30   74937 1.0069 159.7 18.1 1000  79
2024 09 12 07  22 14 06.613   +00 20 15.03   74583 1.0069 162.5 18.0 1021  79
2024 09 12 08  22 26 08.857   +00 55 44.43   73508 1.0068 165.1 17.9 1060  79
2024 09 12 09  22 38 40.399   +01 32 29.43   71693 1.0068 167.7 17.7 1123  79
2024 09 12 10  22 52 00.161   +02 11 16.04   69106 1.0068 170.2 17.5 1215  79
2024 09 12 11  23 06 33.493   +02 53 03.62   65697 1.0068 172.0 17.4 1348  79
2024 09 12 12  23 22 57.462   +03 39 14.53   61393 1.0067 172.3 17.2 1547  79
2024 09 12 13  23 42 11.490   +04 31 51.73   56088 1.0067 170.2 17.1 1853  80